Location: Chimay
(50.0486°N, 4.3171°E)
Time: 17:35:52
(UTC+00:00)

Cosmos 2369 - Pass Details

Date: 08 August 2020
Orbit: 838 x 857 km, 71.0° (Epoch: 24 September)

Event Time Altitude Azimuth Distance (km) Brightness Sun altitude
Rises 19:54:33 0° 331° (NNW) 3,440 8.2 -6.6°
Reaches altitude 10° 19:57:03 10° 335° (NNW) 2,501 7.2 -6.9°
Maximum altitude 20:02:46 65° 57° (ENE) 941 3.9 -7.6°
Drops below altitude 10° 20:08:27 10° 140° (SE) 2,485 5.5 -8.4°
Enters shadow 20:08:34 10° 140° (SE) 2,527 5.5 -8.4°
